Flag for U.S.A. Weather past 2 weeks in Galveston, Texas, U.S.A.

Now
85 °F

Sunny.


Feels Like: 93 °F
Forecast: 78 / 88 °F
Wind: 9 mph from Southeast

Location: Scholes Field

Current Time: Sep 3, 2015 at 7:27:02 PM

Latest Report: Sep 3, 2015 at 6:52 PM


Visibility: 10 mi

Pressure: 29.87 "Hg

Humidity: 72%

Dew point: 75 °F

Location of GalvestonLocation

Historic Weather in Galveston — Graph

°F

Galveston temperature yesterday

Maximum temperature yesterday: 84 °F (at 2:52 PM)
Minimum temperature yesterday: 75 °F (at 4:52 AM)
Average temperature yesterday: 79 °F

Past Weeks' High & Low Weather Summary

 TemperatureHumidityPressure
High94 °F (Aug 24, 2:52 PM)94% (Aug 21, 9:52 AM)30.13 "Hg (Aug 21, 9:52 AM)
Low73 °F (Sep 1, 10:52 AM)42% (Aug 27, 5:52 PM)29.80 "Hg (Aug 19, 6:52 PM)
Average83 °F72%30.00 "Hg
* Reported Aug 19 5:52 PM — Sep 3 5:52 PM, Galveston, Weather by CustomWeather, © 2015

Note: Actual official high and low records may vary slightly from our data, if they occured in-between our weather recording intervals... More about our weather records

Advertising

Galveston weather history for previous 24 hours

 ConditionsComfort  
Time TempWeatherWind HumidityBarometerVisibility
5:52 PM
Thu, Sep 3
86 °FScattered clouds.10 mph75%29.88 "Hg10 mi
4:52 PM86 °FSunny.12 mph75%29.89 "Hg10 mi
3:52 PM86 °FScattered clouds.12 mph75%29.90 "Hg10 mi
2:52 PM86 °FPartly sunny.10 mph75%29.92 "Hg10 mi
1:52 PM86 °FPartly sunny.12 mph75%29.93 "Hg10 mi
12:52 PM86 °FPartly sunny.9 mph72%29.95 "Hg10 mi
11:52 AM86 °FPartly sunny.N/A70%29.97 "Hg10 mi
10:52 AM84 °FOvercast.5 mph74%29.97 "Hg10 mi
9:52 AM84 °FSunny.3 mph74%29.96 "Hg10 mi
8:52 AM83 °FSunny.7 mph82%29.96 "Hg10 mi
7:52 AM81 °FClear.No wind88%29.95 "Hg10 mi
6:52 AM79 °FPassing clouds.5 mph90%29.93 "Hg10 mi
6:02 AM79 °FPassing clouds.No wind90%29.93 "Hg10 mi
5:52 AM79 °FPartly cloudy.No wind90%29.93 "Hg10 mi
4:52 AM80 °FPassing clouds.No wind85%29.93 "Hg10 mi
3:52 AM79 °FClear.3 mph88%29.93 "Hg10 mi
2:52 AM79 °FPassing clouds.5 mph88%29.94 "Hg10 mi
1:52 AM80 °FPassing clouds.6 mph87%29.94 "Hg10 mi
12:52 AM81 °FPassing clouds.8 mph85%29.95 "Hg10 mi
11:52 PM
Wed, Sep 2
81 °FPassing clouds.9 mph82%29.95 "Hg10 mi
10:52 PM81 °FClear.7 mph82%29.95 "Hg10 mi
9:52 PM81 °FPassing clouds.8 mph82%29.95 "Hg10 mi
8:52 PM82 °FPassing clouds.9 mph79%29.94 "Hg10 mi
7:52 PM82 °FPassing clouds.10 mph82%29.94 "Hg10 mi
Weather by CustomWeather, © 2015

See weather overviewHow to use our weather pages